Погода в Заводской Слободе

Беларусь     53°47′00″N   30°00′48″E
темп.,
°C
ветер,
м/с
пор.,
м/с
влажн.,
%
обл.,
%
осадки,
мм/ч
давл.,
гПа
погр.,
м
23 апреля, пт
пт2300:00+7зюз3688100 0.3 1012410
03:00+5зюз3786100 0.3 1012314
06:00+4зюз4885100 0.0 1013328
09:00+6зюз58692 0.0 1013912
12:00+8зюз7950100 0.0 10141963
15:00+8з785299 0.0 10141734
18:00+7зюз575379 0.1 10141521
21:00+4юз377597 0.1 1014168
24 апреля, сб
сб2400:00+3зюз3679100 0.0 1013173
03:00+2з4791100 0.0 1013419
06:00+1з61096100 1.3 1012632
09:00+1сз81192100 2.3 1014953
12:00+2зсз797690 0.3 10151148
15:00+3зсз686696 0.4 10161343
18:00+5з6965100 0.7 10151233
21:00+1зюз48805 0.7 1016161
25 апреля, вс
вс2500:000зюз511895 0.0 1016308
03:00−1зюз4119176 0.0 1016267
06:00−1зюз498524 0.0 1015319
09:00+2з57675 0.0 1015933
12:00+3з6758100 0.1 10151411
15:00+5з6854100 0.4 10151911
18:00+5з685578 0.3 10141405
21:00+1з36765 0.3 101593
26 апреля, пн
пн2600:000зюз35835 0.0 101676
03:00−1зюз348446 0.0 101575
06:00−1з3785100 0.0 1015197
09:00+3з456697 0.1 1014886
12:00+6з6743100 0.1 10132295
15:00+6з6743100 0.1 10122002
18:00+6зсз6755100 0.1 10121467
21:00+2зюз367682 0.1 1012106
27 апреля, вт
вт2700:000зюз498972 0.1 1012177
03:00−1зюз389357 0.1 1012156
06:00−1з369144 0.0 1012173
09:00+4зсз466764 0.0 1013846
12:00+6з564999 0.4 10131835
15:00+8з5643100 0.7 10132144
18:00+8з454536 0.0 10131759
21:00+3зсз22655 0.0 101413